Regional Weather Roundup
Issued by NWS Grand Forks, ND

Home | Current Version | Previous Version | Graphics & Text | Print | Product List | Glossary On
Versions: 1 2 3 4 5 6 7 8 9 10 11 12 13 14 15 16 17 18 19 20 21 22 23 24 25 26 27 28 29 30 31 32 33 34 35 36 37 38 39 40 41 42 43 44 45 46 47 48 49 50
000
ASUS43 KFGF 282331
RWRFGF
PRAIRIE TO PINES  WEATHER ROUNDUP
NATIONAL WEATHER SERVICE EASTERN NORTH DAKOTA/GRAND FORKS ND
600 PM CDT SAT MAR 28 2015

 **SATELLITE DATA USED TO AUGMENT SKY COVER AT AUTOMATED STATIONS**
 *****  WEATHER ACROSS EASTERN NORTH DAKOTA  *****

CITY           SKY/WX    TMP DP  RH WIND       PRES   REMARKS
GRAND FORKS    PTSUNNY   50  32  50 S30G39    29.73F
GRAND FRKS AFB PTSUNNY   50  33  52 S25G38    29.70F
GRAND FRKS NWS   N/A     46 N/A N/A S41         N/A
DEVILS LAKE    PTSUNNY   48  37  66 S18G32    29.58F
FARGO          MOSUNNY   54  29  38 S23G33    29.79F
WAHPETON ARPT  CLEAR     50  28  43 S28G35    29.83F
$$

 ***** WEATHER ACROSS CENTRAL AND WESTERN NORTH DAKOTA  *****

CITY           SKY/WX    TMP DP  RH WIND       PRES   REMARKS
BISMARCK       PTSUNNY   65  36  34 S23       29.57F
MINOT          CLOUDY    67  39  35 S24G35    29.42F
JAMESTOWN      SUNNY     53  34  48 S28G37    29.67F
MINOT AFB      CLOUDY    66  46  47 S25       29.40F
GARRISON         N/A     66  39  37 S23       29.45F
WILLISTON      LGT RAIN  67  44  43 W32G56    29.46R
DICKINSON      CLOUDY    69  36  29 W49G68    29.50R SQUALL
HETTINGER      MOSUNNY   78  30  17 S15G24    29.52F
$$

 *****  OTHER AIRPORT OBSERVATIONS IN OUR AREA  *****

CITY           SKY/WX    TMP DP  RH WIND       PRES   REMARKS
WALHALLA         N/A     46  37  71 S15G26    29.61F
GRAFTON AIRPOR NOT AVBL
VALLEY CITY AR FAIR      54  32  43 S28G33    29.70F
CANDO          FAIR      46  37  71 S18G26    29.56F
CAVALIER APRT  FAIR      45  36  70 S23G35    29.62F
GWINNER        CLEAR     54  32  43 S23G30      N/A
ROLLA          FAIR      48  41  76 S22G29    29.52F
 ***** THE ABOVE OBSERVATIONS ARE NON NWS ARE NOT QUALITY
       CONTROLLED AND MAY MIS-REPORT RAIN FOR SNOW...
$$

  *****  WEATHER ACROSS NORTHERN MINNESOTA  *****

CITY           SKY/WX    TMP DP  RH WIND       PRES   REMARKS
FLAG ISLAND    CLOUDY    36  28  75 S16       29.75F
WARROAD        CLOUDY    45  30  57 S15G28    29.77F
ROSEAU         CLOUDY    45  30  57 S22       29.75F
HALLOCK        CLOUDY    46  30  53 S30G38    29.68F
THF RVR FALLS  PTSUNNY   45  28  53 S20G25    29.77F
BAUDETTE       MOSUNNY   43  23  45 S17G28    29.80F
WASKISH        PTSUNNY   45  25  45 S13G20    29.84F
CROOKSTON      CLOUDY    46  28  49 S26G38    29.76F
STEPHEN NDAWN    N/A     48  30  49 S26         N/A
GREENBUSH NDAW   N/A     43  30  61 S23         N/A
$$
  *****  WEATHER ACROSS CENTRAL AND WEST MINNESOTA  *****

CITY           SKY/WX    TMP DP  RH WIND       PRES   REMARKS
FOSSTON        PTSUNNY   41  27  56 S22G29    29.82F
BEMIDJI        MOSUNNY   42  24  48 S21G28    29.86F
PARK RAPIDS    MOSUNNY   45  24  43 S20G32    29.90F
ELBOW LAKE     FAIR      44  30  59 S25G31    29.88F
WADENA         MOSUNNY   41  27  56 S20G28    29.91F
DETROIT LAKES  MOSUNNY   43  30  61 S20G28    29.86F
MOORHEAD       MOSUNNY   52  27  37 S30G36    29.81F
FERGUS FALLS   SUNNY     45  27  49 S23G29    29.88F
MORRIS MN      SUNNY     46  34  61 S21G30    29.89F
STAPLES        SUNNY     39  25  56 S23G29    29.95F
$$
  *****  WEATHER ELSEWHERE ACROSS MINNESOTA  *****

CITY           SKY/WX    TMP DP  RH WIND       PRES   REMARKS
DULUTH         MOSUNNY   42  12  29 SW21      29.99F
INTRNTL FALLS  MOSUNNY   44  15  31 SW15G23   29.86F
ELY            SUNNY     41   3  20 S14G22    29.93F
CLOQUET        SUNNY     41  10  28 S14G22    29.98F
WHEATON        SUNNY     48  30  49 SE20G29   29.86F
BRAINERD       SUNNY     41  21  44 S17G26    29.97F
HIBBING        MOSUNNY   42  14  32 SW10G22   29.94F
ALEXANDRIA     SUNNY     43  27  53 S23G29    29.94F
SAINT CLOUD    SUNNY     42  21  43 S18G28    30.02F
MINNEAPOLIS    MOSUNNY   40  22  48 SE14      30.10F
$$

  *****  WEATHER ACROSS SOUTH DAKOTA  *****

CITY           SKY/WX    TMP DP  RH WIND       PRES   REMARKS
SIOUX FALLS    SUNNY     53  27  36 S21G29    29.93F
BROOKINGS      NOT AVBL
WATERTOWN      SUNNY     52  28  39 S24G31    29.85F
HURON          SUNNY     57  30  35 S23G32    29.82F
SISSETON         N/A     53  31  42 S24G33    29.82F
ABERDEEN       SUNNY     57  31  37 S21G37    29.77F
MITCHELL       SUNNY     57  32  38 S25       29.85F
PIERRE         SUNNY     73  36  25 SE21G29   29.64F
MOBRIDGE       SUNNY     67  36  31 S21       29.60F
RAPID CITY     SUNNY     82  23  11 W18G26    29.58F
$$

  *****  SOME WEATHER IN NEARBY STATES *****

CITY           SKY/WX    TMP DP  RH WIND       PRES   REMARKS
GLASGOW MT     CLOUDY    52  41  66 W26G37    29.64R
GREAT FALLS MT PTSUNNY   53  23  31 W35G49    29.88R HAZE
CHEYENNE WY    MOSUNNY   70  19  14 W20G32    29.94F
SCOTTSBLUFF NE SUNNY     82  25  12 W25G32    29.77F
OMAHA NE       SUNNY     54  30  40 S20       30.04F
DES MOINES IA  SUNNY     49  17  28 S15       30.13F
DAVENPORT IA   SUNNY     40  10  29 S10       30.24F
CHICAGO IL     SUNNY     35   7  31 E6        30.28F
EAU CLAIRE WI  SUNNY     40   6  24 SW13      30.13F
LA CROSSE WI   SUNNY     42  13  30 SW10      30.19F
$$

  *****  SOME NATIONAL WEATHER *****

CITY           SKY/WX    TMP DP  RH WIND       PRES   REMARKS
LA GUARDIA NY  MOCLDY    35  25  66 N12       29.95R
RALEIGH NC     PTCLDY    44   8  23 NW7       30.10R
ATLANTA GA     MOSUNNY   51  14  22 W14       30.15R
NEW ORLEANS LA MOSUNNY   66  46  48 S13       30.17R
OKLAHOMA CITY  SUNNY     77  43  29 E8        29.96S
ALBUQUERQUE NM SUNNY     79  18  10 W8        30.08F
SALT LAKE CITY PTSUNNY   70  24  17 N17       30.11R
LOS ANGELES CA MOSUNNY   68  58  70 W9        30.01F
BOISE ID       PTSUNNY   59  28  30 W12       30.26F
SEATTLE WA     CLOUDY    57  43  59 SW13G22   30.33F
$$

*** WEATHER ACROSS MANITOBA...SASKATCHEWAN AND ONTARIO ***
                ***ONTARIO***

CITY           SKY/WX    TMP DP  RH WIND       PRES   REMARKS
GERALDTON      PTSUNNY   32  12  43 SW17G26   29.95S WCI  21
THUNDER BAY    PTSUNNY   36  14  41 S14       30.01F
SIOUX LOOKOUT  CLOUDY    37  12  35 SW14      29.82F
TORONTO        CLEAR     27   1  33 N17       30.19R WCI  14
BIG TROUT LK   CLOUDY    37  23  56 SW12G18   29.60F
PICKLE LAKE    CLOUDY    37  10  32 SW15G24   29.76F
DRYDEN         SUNNY     41  14  33 S14G22    29.79F
KENORA         CLOUDY    39  21  48 S12G20    29.75F
$$
                *** MANITOBA***

CITY           SKY/WX    TMP DP  RH WIND       PRES   REMARKS
BRANDON        PTSUNNY   50  41  71 S6        29.48F
DAUPHIN        SUNNY     45  36  70 SW13G18   29.42F
ISLAND LAKE    LGT SNOW  34  32  93 S6        29.53F
PILOT MOUND      N/A     45  39  81 S30G38      N/A
THE PAS        CLOUDY    39  30  70 N3        29.45R
THOMPSON       LGT SNOW  32  30  93 SW6       29.47S
WINNIPEG       CLOUDY    45  32  61 S29G37    29.62F
LYNN LAKE      SUNNY     41  32  70 NW13G18   29.45R
CHURCHILL      CLOUDY    36  30  80 W8        29.37F
GILLAM         CLOUDY    32  30  93 SW10G17   29.46F WCI  24
$$
                ***SASKATCHEWAN***

CITY           SKY/WX    TMP DP  RH WIND       PRES   REMARKS
ESTEVAN        CLOUDY    57  46  67 N17G24    29.42F
KINDERSLEY     CLOUDY    43  39  87 NW18G25   29.69R
LLOYDMINSTER   PTSUNNY   46  36  66 NW10G20   29.71R
PRINCE ALBERT  PTSUNNY   43  36  75 N12G22    29.58R
REGINA         LGT RAIN  48  46  93 W14       29.50R
YORKTON        CLOUDY    45  39  81 SE3       29.42F
N. BATTLEFORD  NOT AVBL
LA RONGE       PTSUNNY   46  30  53 NW15G22   29.57R
SASKATOON      PTSUNNY   43  39  87 N13G18    29.62R
SWIFT CURRENT  LGT RAIN  46  43  87 NW22G28   29.58R
$$
NOTE: THESE ARE AUTOMATED STATIONS WITH LIMITED QUALITY CONTROL
      "FAIR" INDICATES FEW OR NO CLOUDS BELOW 12,000 FEET WITH NO
      SIGNIFICANT WEATHER AND/OR OBSTRUCTIONS TO VISIBILITY.
      SKY/WX - SKY CONDITION AND SIGNIFICANT WEATHER.
      TMP - AIR TEMPERATURE.    DP   - DEWPOINT TEMPERATURE.
      RH  - RELATIVE HUMIDITY.  PRES - PRESSURE.
      HX  - HEAT INDEX.         WCI  - WIND CHILL INDEX.
$


USA.gov is the U.S. government's official web portal to all federal, state and local government web resources and services.